This demonstration page uses our WeatherBlox Daily Observations layout. Learn more.

Left ArrowRight Arrow

44.8408, -93.29828

Hourly Observations for March 30, 2016

Temp ( °F °C ) Dew Point ( °F °C ) Humidity (%) Winds ( mph kmh ) Pressure ( in mb ) Visibility ( mi km ) Precip ( " mm )
12:53 am 00:53 Cloudy with Rain 46 7.8 42 5.6 86 86 ESE 8 13 29.97 1015 5 8 0.11 2.79
1:53 am 01:53 Cloudy with Light Rain 46 7.8 41 5 83 83 ESE 13 20 29.93 1014 10 16 0.08 2.03
2:53 am 02:53 Cloudy 45 7.2 40 4.4 83 83 SE 15 24 29.88 1012 10 16 0.00 0.03
3:34 am 03:34 Cloudy 45 7.2 40 4.4 83 83 ESE 18 30 29.85 1011 10 16 0.00 0.00
3:53 am 03:53 Cloudy with Light Rain 45 7.2 40 4.4 83 83 SE 15 24 29.83 1010 10 16 0.00 0.03
4:53 am 04:53 Cloudy with Light Rain 45 7.2 39 3.9 80 80 SE 16 26 29.79 1009 10 16 0.00 0.03
5:53 am 05:53 Cloudy with Light Rain 44 6.7 40 4.4 85 85 SE 14 22 29.76 1008 7 11 0.04 1.02
6:53 am 06:53 Cloudy with Light Rain 44 6.7 40 4.4 85 85 SSE 15 24 29.75 1008 9 14 0.09 2.29
7:53 am 07:53 Cloudy with Rain 44 6.7 39 3.9 83 83 SE 13 20 29.73 1007 8 13 0.10 2.54
8:53 am 08:53 Cloudy 43 6.1 39 3.9 86 86 SE 15 24 29.68 1005 10 16 0.10 2.54
9:23 am 09:23 Cloudy 44 6.7 39 3.9 83 83 SE 14 22 29.68 1005 10 16 0.00 0.00
9:30 am 09:30 Cloudy 45 7 39 4 81 81 SE 14 22 29.68 1005 10 16 0.00 0.00
9:37 am 09:37 Cloudy 43 6.1 39 3.9 86 86 SE 14 22 29.68 1005 10 16 0.00 0.00
9:53 am 09:53 Cloudy with Light Rain 43 6.1 40 4.4 89 89 SE 13 20 29.65 1004 4 6 0.00 0.03
10:26 am 10:26 Cloudy with Light Rain 43 6 39 4 87 87 SSE 8 13 29.68 1005 4 6 0.00 0.00
10:53 am 10:53 Cloudy with Drizzle 43 6.1 41 5 93 93 VRB 7 11 29.64 1004 6 10 0.01 0.25
11:53 am 11:53 Cloudy with Drizzle 44 6.7 41 5 89 89 E 3 6 29.65 1004 8 13 0.00 0.03
12:46 pm 12:46 Cloudy with Drizzle 44 6.7 41 5 89 89 NE 5 7 29.65 1004 7 11 0.00 0.03
12:53 pm 12:53 Cloudy with Drizzle 44 6.7 41 5 89 89 VRB 3 6 29.63 1004 7 11 0.00 0.03
1:10 pm 13:10 Cloudy with Drizzle 45 7 41 5 87 87 ENE 6 9 29.65 1004 7 11 0.00 0.00
1:53 pm 13:53 Cloudy 45 7.2 41 5 86 86 VRB 5 7 29.62 1003 8 13 0.00 0.03
2:53 pm 14:53 Cloudy 47 8.3 41 5 80 80 NE 3 6 29.61 1003 7 11 0.00 0.00
3:53 pm 15:53 Cloudy 47 8.3 42 5.6 83 83 NNE 6 9 29.62 1003 8 13 0.00 0.00
4:26 pm 16:26 Cloudy 46 8 41 5 82 82 NNE 7 11 29.62 1003 10 16 0.00 0.00
4:53 pm 16:53 Cloudy 47 8.3 41 5 80 80 N 8 13 29.61 1003 10 16 0.00 0.00
5:53 pm 17:53 Cloudy 46 7.8 40 4.4 79 79 NNE 12 19 29.59 1002 10 16 0.00 0.00
6:53 pm 18:53 Cloudy 46 7.8 40 4.4 79 79 NNE 10 17 29.59 1002 10 16 0.00 0.00
7:19 pm 19:19 Cloudy 46 7.8 40 4.4 79 79 NNE 12 19 29.62 1003 10 16 0.00 0.00
7:24 pm 19:24 Cloudy 46 8 39 4 76 76 NNE 10 17 29.62 1003 10 16 0.00 0.00
7:53 pm 19:53 Cloudy 46 7.8 40 4.4 79 79 NE 7 11 29.60 1002 10 16 0.00 0.00
8:53 pm 20:53 Cloudy 46 7.8 41 5 83 83 NNE 6 9 29.60 1002 10 16 0.00 0.00
9:10 pm 21:10 Cloudy 46 7.8 40 4.4 79 79 NE 7 11 29.62 1003 10 16 0.00 0.00
9:40 pm 21:40 Cloudy 46 7.8 40 4.4 79 79 NE 8 13 29.59 1002 10 16 0.00 0.00
9:53 pm 21:53 Cloudy 46 7.8 40 4.4 79 79 NNE 5 7 29.58 1002 10 16 0.00 0.00
10:53 pm 22:53 Cloudy 45 7.2 40 4.4 83 83 NNE 7 11 29.56 1001 10 16 0.00 0.00
11:14 pm 23:14 Cloudy 45 7 39 4 81 81 N 7 11 29.59 1002 10 16 0.00 0.00
11:53 pm 23:53 Cloudy 45 7.2 41 5 86 86 NNE 9 15 29.54 1001 10 16 0.00 0.00

Powered by AerisWeather